Location: Alsip
(41.6689°N, 87.7387°W)
Time: 06:25:09
(UTC+00:00)

DMSP B5D2-2 - Pass Details

Date: 14 July 2020
Orbit: 789 x 807 km, 98.3° (Epoch: 04 August)

Event Time Altitude Azimuth Distance (km) Brightness Sun altitude
Rises 01:52:22 0° 13° (NNE) 3,298 7.6 -5.2°
Reaches altitude 10° 01:54:42 10° 13° (NNE) 2,363 6.9 -5.5°
Maximum altitude 01:59:56 90° 103° (ESE) 795 4.1 -6.3°
Drops below altitude 10° 02:05:07 10° 195° (SSW) 2,345 6.3 -7.1°
Sets 02:07:26 0° 195° (SSW) 3,270 7.0 -7.4°
